SCP
0 0 0 0 0 0 0 0 0 0 0 0 0 0 0 0 0 0 0 0 0 1 1 1 1 1 1 1 1 1 1 1 1 1 1 1 1 1 1 1 1 1 1 1
0 0 0 0 0 0 0 0 0 0 0 0 0 0 0 0 0 0 0 0 0 0 1 1 1 1 1 1 1 1 1 1 1 1 1 1 1 1 1 1 1 1 1 1
0 0 0 0 0 0 0 0 0 0 0 0 0 0 0 0 0 0 0 0 0 0 0 1 1 1 1 1 1 1 1 1 1 1 1 1 1 1 1 1 1 1 1 1
0 0 0 0 0 0 0 0 0 0 0 0 0 0 0 0 0 0 0 0 0 0 0 1 1 1 1 1 1 1 1 1 1 1 1 1 1 1 1 1 1 1 1 1
0 0 0 0 0 0 0 0 0 0 0 0 0 0 0 0 0 0 0 0 0 0 0 1 1 1 1 1 1 1 1 1 1 1 1 1 1 1 1 1 1 1 0 0
0 0 0 0 0 0 0 0 0 0 0 0 0 0 0 0 0 0 0 0 0 0 1 1 1 1 1 1 1 1 1 1 1 1 1 1 1 1 1 1 1 1 0 0
0 0 0 0 0 0 0 0 0 0 0 0 0 0 0 0 0 0 0 0 0 1 1 1 1 1 1 1 1 1 1 1 1 1 1 1 1 1 1 1 1 1 1 0
0 0 0 0 0 0 0 0 0 0 0 0 0 0 0 0 0 0 0 0 0 1 1 1 1 1 1 1 1 1 1 1 1 1 1 1 1 1 1 1 1 1 0 0
0 0 0 0 0 0 0 0 0 0 0 0 0 0 0 0 0 0 0 0 0 0 1 1 1 1 1 1 1 1 1 1 1 1 1 1 1 1 1 1 1 0 0 0
0 0 0 0 0 0 0 0 0 0 0 0 0 0 0 0 0 0 0 0 0 0 0 1 1 1 1 1 1 1 1 1 1 1 1 1 1 1 1 1 0 0 0 0
0 0 0 0 0 0 0 0 0 0 0 0 0 0 0 0 0 0 0 0 0 0 1 1 1 1 1 1 1 1 1 1 1 1 1 0 0 0 0 0 0 0 0 0
0 0 0 0 0 0 0 0 0 0 0 0 0 0 0 0 0 0 0 0 0 0 1 1 1 1 1 1 1 1 1 1 1 0 0 0 0 0 0 0 0 0 0 0
0 0 0 0 0 0 0 0 0 0 0 0 0 0 0 0 0 0 0 0 0 0 1 1 1 1 1 1 1 1 1 1 1 0 0 0 0 0 0 0 0 0 0 0
0 0 0 0 0 0 0 0 0 0 0 0 0 1 1 1 0 0 0 0 0 1 1 1 1 1 1 1 1 1 1 1 1 1 0 0 0 0 0 0 0 0 0 0
0 0 0 0 0 0 0 0 0 0 0 0 0 1 1 0 0 0 0 0 0 1 1 1 1 1 1 1 1 1 1 0 0 0 0 0 0 0 0 0 0 0 0 0
0 0 0 0 0 0 0 0 0 0 0 0 0 0 0 0 0 0 0 0 0 0 1 1 1 1 1 1 1 1 0 0 0 0 0 0 0 0 0 0 0 0 0 0
0 0 0 0 0 0 0 0 0 0 0 0 0 0 0 0 0 0 0 0 0 0 0 0 0 1 1 1 0 0 0 0 0 0 0 0 0 0 0 0 0 0 0 0
0 0 0 0 0 0 0 0 0 0 0 0 0 0 0 0 0 0 0 0 0 0 0 0 0 0 0 0 0 0 0 0 0 0 0 0 0 0 0 0 0 0 0 0
0 0 0 0 0 0 0 0 0 0 0 0 0 0 0 0 0 0 0 0 0 0 0 0 0 0 0 0 0 0 0 0 0 0 0 0 0 0 0 0 0 0 0 0
0 0 0 0 0 0 0 0 0 0 0 0 0 0 0 0 0 0 0 0 0 0 0 0 0 0 0 0 0 0 0 0 0 0 0 0 0 0 0 0 0 0 0 0
0 0 0 0 0 0 0 0 0 0 0 0 0 0 0 0 0 0 0 0 0 0 0 0 0 0 0 0 0 0 0 0 0 0 0 0 0 0 0 0 0 0 0 0
0 0 0 0 0 0 0 0 0 0 0 0 0 0 0 0 0 0 0 0 0 0 0 0 0 0 0 0 0 0 0 0 0 0 0 0 0 0 0 0 0 0 0 0
0 0 0 0 0 0 0 0 0 0 0 0 0 0 0 0 0 0 0 0 0 0 0 0 0 0 0 0 0 0 0 0 0 0 0 0 0 0 0 0 0 0 0 0
0 0 0 0 0 0 0 0 0 0 0 0 0 0 0 0 0 0 0 0 0 0 0 0 0 0 0 0 0 0 0 0 0 0 0 0 0 0 0 0 0 0 0 0
0 0 0 0 0 0 0 0 0 0 0 0 0 0 0 0 0 0 0 0 0 0 0 0 0 0 0 0 0 0 0 0 0 0 0 0 0 0 0 0 0 0 0 0
0 0 0 0 0 0 0 0 0 0 0 0 0 0 0 0 0 0 0 0 0 0 0 0 0 0 0 0 0 0 0 0 0 0 0 0 0 0 0 0 0 0 0 0
0 0 0 0 0 0 0 0 0 0 0 0 0 0 0 0 0 0 0 0 0 0 0 0 0 0 0 0 0 0 0 0 0 0 0 0 0 0 0 0 0 0 0 0
Wind_Speed
9 7 7 8 9 9 11 11 11 9 8 3 3 3 2 3 3 3 3 3 2 2 2 1 2 2 1 1 1 1 2 2 2 3 3 3 2 2 3 3 3 3 4 4
9 9 9 10 11 11 11 11 11 11 8 2 2 3 3 3 3 2 2 2 2 1 1 1 1 1 1 1 1 1 2 2 1 2 2 2 3 2 2 3 3 3 4 4
10 8 10 13 11 11 11 10 10 10 5 2 3 4 3 3 2 1 1 1 0 0 1 1 1 1 1 1 1 2 1 1 1 2 2 2 2 2 2 3 3 4 4 5
8 7 14 5 2 6 9 8 7 7 4 4 4 4 4 3 3 2 1 1 1 0 1 1 1 1 1 1 2 2 1 1 1 1 2 2 2 3 3 3 3 3 4 4
8 11 10 6 4 5 8 7 5 5 4 4 3 4 4 2 2 1 1 1 1 0 1 1 1 1 1 1 1 1 1 1 1 2 2 2 2 2 2 3 3 3 3 3
9 11 11 2 2 1 6 8 3 4 4 4 5 6 3 4 2 1 1 1 1 1 1 1 1 1 1 1 1 1 1 1 2 2 2 2 2 2 2 3 3 3 2 3
12 12 7 3 1 4 8 1 2 1 3 5 5 3 3 3 2 2 1 1 1 1 1 1 1 1 1 1 1 1 1 1 1 1 2 2 2 2 2 2 2 3 3 3
9 12 5 4 1 3 4 4 2 1 2 2 1 1 1 2 2 2 1 1 0 0 1 2 2 1 1 1 1 1 1 0 0 1 2 1 1 1 2 2 3 2 3 3
5 3 3 2 2 3 3 3 3 3 2 3 2 2 1 2 2 2 2 1 0 0 1 1 1 2 2 2 2 1 1 0 0 1 1 1 2 2 2 2 3 2 2 3
5 3 2 2 2 3 3 4 4 4 4 5 4 3 2 2 2 2 2 1 1 1 1 1 2 2 2 2 2 1 1 1 1 1 1 1 2 2 2 2 3 3 3 3
7 4 4 3 3 4 5 5 5 4 4 5 5 4 3 2 2 2 1 1 2 2 2 2 2 2 2 1 2 2 1 1 1 1 1 1 1 2 3 2 3 4 4 3
5 3 5 4 5 5 6 6 6 6 5 5 5 4 4 3 2 2 2 2 2 2 2 2 2 2 1 1 2 2 2 2 2 2 1 2 1 0 2 0 1 0 2 4
6 6 6 6 7 7 7 7 7 6 6 5 5 4 4 3 3 2 2 2 2 2 2 2 2 2 2 2 2 2 2 2 2 2 2 2 2 2 2 1 2 2 1 1
5 5 6 6 7 7 6 6 6 5 5 4 3 3 2 2 2 2 2 2 2 2 2 2 2 2 2 2 2 2 3 2 3 2 2 2 2 3 3 3 2 1 2 3
5 6 6 6 6 6 5 4 4 4 3 3 2 2 1 1 1 1 1 1 2 2 2 2 2 2 2 3 2 3 3 2 2 2 2 2 3 3 3 3 3 2 2 1
6 5 5 5 5 5 5 4 3 3 3 3 2 1 1 1 1 1 1 1 1 1 2 2 2 2 2 3 2 2 2 2 3 3 3 2 2 2 2 2 2 3 3 3
5 5 5 5 5 6 6 5 4 3 3 3 2 2 2 2 1 1 0 0 1 1 2 2 2 2 2 2 3 3 2 1 3 4 2 2 2 2 3 3 3 3 2 2
4 5 5 5 5 5 5 4 4 4 3 3 2 2 3 2 2 1 1 1 1 1 2 2 2 2 2 2 3 3 2 2 3 2 2 2 2 2 2 2 2 3 2 0
3 4 4 5 4 4 5 4 4 3 3 3 3 3 2 2 2 2 2 2 2 2 2 2 2 3 3 2 3 2 2 2 2 1 1 1 2 2 2 2 2 3 2 2
2 3 4 4 3 3 3 3 3 2 3 2 2 2 2 2 2 2 2 2 2 2 2 2 2 2 2 1 3 2 2 2 2 1 1 2 2 2 2 2 2 2 2 1
3 3 3 3 3 3 2 2 2 2 2 2 2 2 2 2 2 2 2 1 1 1 2 2 2 2 1 1 2 1 1 1 1 1 1 1 1 2 2 2 2 2 2 2
3 3 3 3 3 3 2 2 2 1 1 1 1 1 2 2 2 2 2 2 1 1 2 1 1 2 2 2 1 1 1 1 1 1 1 1 1 1 1 2 2 2 2 2
3 3 3 3 3 3 3 2 1 1 1 1 1 1 2 2 2 2 1 1 1 1 1 1 2 2 2 2 1 1 1 1 1 1 1 1 1 1 1 2 2 2 2 2
3 3 3 3 2 2 2 2 1 0 0 1 1 1 2 2 1 1 1 1 1 0 1 1 1 1 3 2 1 1 1 1 1 1 1 1 1 2 2 2 2 2 2 3
3 3 3 3 2 2 1 1 0 0 0 0 0 0 1 1 0 1 1 1 1 1 1 1 1 2 2 1 1 1 1 1 1 2 2 2 2 2 2 2 2 2 2 2
3 3 2 2 2 2 1 1 1 1 1 0 0 0 0 0 0 0 0 0 0 0 1 1 1 2 1 1 1 1 1 0 1 1 2 2 2 2 2 2 2 2 2 2
3 2 2 2 1 2 1 1 1 1 1 1 1 0 0 0 0 0 0 0 0 0 0 1 1 1 1 1 1 1 1 1 1 1 2 2 2 2 2 2 2 2 2 2
Wind_Direction
264 273 262 252 242 236 246 263 276 282 275 249 227 211 188 173 164 158 149 148 152 161 156 158 160 164 158 160 163 186 203 212 208 207 209 231 243 251 258 258 261 264 266 267
246 248 250 252 251 247 248 256 260 267 270 266 231 197 182 173 170 159 137 145 149 151 160 169 169 164 166 172 167 180 208 216 206 218 219 231 241 248 262 269 269 269 267 268
249 242 249 244 243 246 246 247 259 265 272 241 207 194 193 184 177 161 122 97 96 159 208 253 245 212 203 179 173 185 193 201 203 224 235 242 253 258 264 273 274 269 270 270
256 242 248 256 271 258 256 255 263 273 263 234 223 205 189 180 176 170 125 103 105 186 238 267 270 246 226 192 186 193 194 210 224 232 243 247 251 259 265 264 269 270 271 273
253 249 249 234 227 241 248 247 251 253 236 209 207 213 181 155 152 167 134 103 75 337 325 310 306 272 223 209 189 191 203 229 243 244 246 246 251 262 271 268 263 265 269 271
245 257 257 250 101 256 250 236 217 225 206 201 210 233 167 126 142 141 103 88 62 32 353 12 20 9 230 222 212 217 251 266 266 253 246 243 245 253 261 261 263 269 275 276
246 252 254 38 33 224 237 327 57 213 200 212 227 309 63 132 141 135 122 100 60 25 20 22 3 351 246 241 248 250 254 264 282 289 262 244 243 244 247 250 263 273 280 279
243 247 237 61 183 262 352 9 338 274 224 236 270 360 134 157 172 180 178 166 87 25 16 11 358 332 300 306 312 291 242 255 4 327 309 317 277 258 254 259 249 254 267 277
273 290 34 351 341 354 333 309 300 283 275 263 254 248 237 213 210 210 210 209 244 312 335 341 342 323 300 314 312 291 268 320 335 299 306 293 270 262 250 250 265 272 272 276
262 248 292 293 305 303 308 305 300 287 274 263 260 257 248 241 239 228 212 215 250 285 297 322 331 320 308 304 294 277 286 305 285 267 286 288 283 280 283 289 288 286 288 290
250 264 267 254 277 291 297 297 295 290 282 272 261 252 248 244 241 238 243 251 267 279 289 303 306 295 300 302 291 283 285 281 280 291 306 300 302 332 309 334 328 309 309 309
266 272 282 296 299 297 295 295 293 290 284 277 265 253 248 245 246 250 252 249 254 266 281 290 292 288 291 281 271 267 260 266 274 276 276 271 256 282 46 309 71 70 325 311
285 296 297 298 300 295 288 289 290 287 278 272 271 261 252 253 250 254 253 248 251 259 269 272 273 275 281 276 272 270 269 270 273 272 265 265 262 260 258 198 180 180 186 259
279 284 281 284 292 296 292 289 283 278 273 267 261 256 251 249 255 257 260 266 268 267 267 270 276 287 293 277 263 265 264 250 255 255 262 267 271 272 274 275 264 241 177 177
288 284 281 289 295 298 294 287 279 265 261 259 255 239 226 222 237 269 277 271 263 258 264 270 278 296 296 279 274 276 273 264 265 272 270 274 278 279 282 290 296 296 294 191
292 288 281 284 294 296 291 286 284 279 268 256 243 230 234 210 191 225 253 258 264 287 301 290 285 301 294 290 287 283 288 305 274 267 263 267 274 282 286 284 288 297 301 315
275 275 278 285 292 295 297 296 289 286 275 252 232 224 216 203 204 214 249 304 327 319 304 298 297 290 277 278 282 286 284 254 249 261 270 278 286 283 282 283 282 289 302 346
274 279 285 289 291 293 295 293 282 274 273 259 234 221 217 215 225 242 267 295 288 289 295 293 302 294 281 267 277 285 281 272 264 266 274 280 280 275 273 275 280 287 295 289
289 292 296 299 295 288 290 291 289 286 278 241 221 224 232 237 242 247 251 252 257 270 293 308 304 275 271 278 286 266 275 278 278 278 273 256 258 272 277 279 283 284 297 308
300 304 311 314 313 304 300 303 299 293 280 256 242 244 250 255 255 255 255 264 287 305 305 303 279 273 269 270 280 265 274 283 287 275 257 260 268 274 276 278 285 298 314 317
321 322 327 329 327 315 302 302 297 289 278 258 248 250 253 260 262 263 265 271 297 316 302 283 274 281 280 282 254 269 286 293 299 292 273 270 275 282 289 299 312 322 327 322
322 324 328 331 326 322 323 313 302 290 272 263 260 249 243 246 249 257 274 290 319 354 279 281 303 356 335 290 257 274 279 295 301 301 296 288 288 298 311 319 322 327 324 319
323 328 327 329 328 323 316 311 314 295 283 277 261 246 253 267 265 260 274 317 323 338 301 352 19 18 315 267 264 268 279 294 312 313 308 305 305 307 313 316 324 329 331 325
317 322 327 329 324 316 316 330 337 316 228 227 237 264 267 256 256 303 341 90 83 239 325 42 39 319 274 277 305 305 313 335 347 333 315 307 313 316 321 324 331 336 335 330
311 312 315 313 306 311 327 317 304 151 196 172 160 176 241 258 313 19 23 46 110 198 210 135 206 254 264 314 316 315 334 2 346 330 330 330 325 325 332 334 335 329 327 328
301 299 309 308 314 309 306 314 333 353 355 359 46 98 93 98 111 117 130 101 92 223 264 261 235 228 269 310 308 305 311 331 303 317 344 331 335 339 336 336 333 335 339 342
276 276 270 276 277 280 288 300 317 326 330 328 316 344 48 173 153 62 348 237 216 252 303 302 297 314 347 337 332 335 336 342 343 341 343 341 345 348 355 355 351 348 338 335